Location: Twentynine Palms Airport
(34.1316°N, 115.9458°W)
Time: 03:26:34
(UTC-07:00)

Oscar 19 - Visible Passes

Search period start: 23 April 2014 00:00
Search period end: 03 May 2014 00:00
Orbit: 775 x 791 km, 98.5° (Epoch: 23 April)

Date Brightness Start Highest point End Pass type
(mag) Time Alt. Az. Time Alt. Az. Time Alt. Az.
23 Apr 12.3 02:51:22 10° N 02:53:53 28° NNW 02:53:53 28° NNW visible
24 Apr 12.5 02:19:44 10° NNE 02:22:04 27° NNE 02:22:04 27° NNE visible
24 Apr 12.9 04:02:10 10° NW 04:02:39 11° NW 04:02:39 11° NW visible
25 Apr 13.0 01:48:35 10° NNE 01:50:16 19° NE 01:50:16 19° NE visible
25 Apr 12.4 03:28:28 10° NNW 03:30:51 20° NW 03:30:51 20° NW visible
26 Apr 13.5 01:18:15 10° NE 01:18:27 11° NE 01:18:27 11° NE visible
26 Apr 12.1 02:56:14 10° N 02:59:02 30° NNW 02:59:02 30° NNW visible
27 Apr 12.2 02:24:32 10° NNE 02:27:13 32° NNE 02:27:13 32° NNE visible
28 Apr 12.7 01:53:18 10° NNE 01:55:24 23° NE 01:55:24 23° NE visible
28 Apr 12.4 03:33:28 10° NNW 03:35:59 19° NW 03:35:59 19° NW visible
29 Apr 13.3 01:22:47 10° NE 01:23:35 13° NE 01:23:35 13° NE visible
29 Apr 12.0 03:01:06 10° N 03:04:10 31° NNW 03:04:10 31° NNW visible
30 Apr 12.0 02:29:20 10° NNE 02:32:21 36° N 02:32:21 36° N visible
01 May 12.5 01:58:01 10° NNE 02:00:31 27° NE 02:00:31 27° NE visible
01 May 12.5 03:38:29 10° NNW 03:41:06 18° NW 03:41:06 18° NW visible
02 May 13.1 01:27:21 10° NE 01:28:42 15° ENE 01:28:42 15° ENE visible
02 May 11.9 03:06:00 10° N 03:09:17 31° NW 03:09:17 31° NW visible
